PAL319 VHHH-RPLL

Flight info

Callsign PAL319
Flight time N/A
Altitude 41000
Route DALOL DCT NOMAN A461 CAB CAB5R
Aircraft A359/H-SDE2E3GHIJ3J4J5LM1ORWXY/LB1D1

Departure

Time 2026-05-06 10:21
Airport Hong Kong International Airport (VHHH)

Arrival

Time N/A
Airport Ninoy Aquino International Airport (RPLL)
Time Latitude Longitude Altitude Speed Heading
2026-05-06 10:21 22.33518 114.05507 6477 ft 238 kts 114°
2026-05-06 10:21 22.32626 114.07015 7235 ft 238 kts 136°
2026-05-06 10:21 22.31326 114.08094 7910 ft 246 kts 154°
2026-05-06 10:21 22.29697 114.08708 8546 ft 254 kts 173°
2026-05-06 10:22 22.27902 114.08808 9345 ft 260 kts 184°
2026-05-06 10:22 22.26044 114.08755 9901 ft 277 kts 184°
2026-05-06 10:22 22.24048 114.08706 10405 ft 294 kts 184°
2026-05-06 10:22 22.21925 114.08669 10796 ft 315 kts 184°
2026-05-06 10:23 22.19682 114.08660 11179 ft 334 kts 181°
2026-05-06 10:23 22.17333 114.09162 11627 ft 353 kts 160°
2026-05-06 10:23 22.15292 114.10660 12256 ft 366 kts 136°
2026-05-06 10:23 22.13842 114.12959 12897 ft 375 kts 118°
2026-05-06 10:24 22.12693 114.15510 13540 ft 381 kts 117°
2026-05-06 10:24 22.11511 114.18108 14132 ft 387 kts 117°
2026-05-06 10:24 22.10302 114.20708 14737 ft 390 kts 118°
2026-05-06 10:24 22.09067 114.23336 15328 ft 394 kts 118°
2026-05-06 10:25 22.07659 114.25882 15892 ft 396 kts 130°
2026-05-06 10:25 22.05680 114.27891 16482 ft 395 kts 146°
2026-05-06 10:25 22.03437 114.29650 17080 ft 398 kts 147°
2026-05-06 10:25 22.01174 114.31401 17652 ft 401 kts 147°
2026-05-06 10:26 21.98937 114.33146 18217 ft 405 kts 147°
2026-05-06 10:26 21.96608 114.34970 18713 ft 409 kts 147°
2026-05-06 10:26 21.94338 114.36759 19196 ft 413 kts 147°
2026-05-06 10:26 21.92011 114.38590 19696 ft 416 kts 147°
2026-05-06 10:27 21.89659 114.40437 20213 ft 419 kts 147°
2026-05-06 10:27 21.87332 114.42378 20716 ft 425 kts 141°
2026-05-06 10:27 21.85345 114.44756 21234 ft 434 kts 127°
2026-05-06 10:27 21.83932 114.47658 21738 ft 441 kts 111°
2026-05-06 10:28 21.83039 114.50824 22239 ft 446 kts 106°
2026-05-06 10:28 21.82227 114.54077 22750 ft 450 kts 106°
2026-05-06 10:28 21.81408 114.57320 23260 ft 454 kts 107°
2026-05-06 10:28 21.80566 114.60616 23712 ft 457 kts 107°
2026-05-06 10:29 21.79720 114.63905 24124 ft 461 kts 107°
2026-05-06 10:29 21.78851 114.67273 24564 ft 465 kts 107°
2026-05-06 10:29 21.77979 114.70640 25021 ft 468 kts 107°
2026-05-06 10:29 21.77102 114.74024 25498 ft 472 kts 107°
2026-05-06 10:30 21.76215 114.77443 25978 ft 476 kts 107°
2026-05-06 10:30 21.75280 114.80870 26450 ft 479 kts 110°
2026-05-06 10:30 21.73932 114.84150 26909 ft 480 kts 122°
2026-05-06 10:30 21.72007 114.87061 27388 ft 479 kts 134°
2026-05-06 10:31 21.69731 114.89696 27864 ft 481 kts 137°
2026-05-06 10:31 21.67393 114.92211 28304 ft 484 kts 139°
2026-05-06 10:31 21.64959 114.94751 28791 ft 488 kts 139°
2026-05-06 10:31 21.62510 114.97289 29237 ft 491 kts 139°
2026-05-06 10:32 21.60043 114.99857 29675 ft 495 kts 139°
2026-05-06 10:32 21.57572 115.02447 30088 ft 499 kts 138°
2026-05-06 10:32 21.55082 115.05073 30453 ft 502 kts 138°
2026-05-06 10:32 21.52584 115.07719 30839 ft 505 kts 138°
2026-05-06 10:33 21.50064 115.10392 31223 ft 508 kts 138°
2026-05-06 10:33 21.47544 115.13066 31580 ft 511 kts 138°
2026-05-06 10:33 21.45037 115.15725 31936 ft 514 kts 138°
2026-05-06 10:33 21.42497 115.18417 32291 ft 516 kts 138°
2026-05-06 10:34 21.39888 115.21180 32640 ft 519 kts 138°
2026-05-06 10:34 21.37352 115.23862 32955 ft 522 kts 138°
2026-05-06 10:34 21.34761 115.26601 33276 ft 524 kts 138°
2026-05-06 10:34 21.32154 115.29356 33586 ft 527 kts 138°
2026-05-06 10:35 21.29535 115.32122 33891 ft 529 kts 138°
2026-05-06 10:35 21.26919 115.34884 34149 ft 531 kts 138°
2026-05-06 10:35 21.24280 115.37667 34472 ft 531 kts 138°
2026-05-06 10:35 21.21644 115.40448 34840 ft 530 kts 138°
2026-05-06 10:36 21.19016 115.43219 35199 ft 530 kts 138°
2026-05-06 10:36 21.16395 115.45980 35549 ft 529 kts 138°
2026-05-06 10:36 21.13764 115.48750 35906 ft 528 kts 138°
2026-05-06 10:36 21.11147 115.51504 36247 ft 528 kts 138°
2026-05-06 10:37 21.08523 115.54263 36565 ft 527 kts 138°
2026-05-06 10:37 21.05909 115.57011 36888 ft 527 kts 138°
2026-05-06 10:37 21.03296 115.59755 37216 ft 527 kts 138°
2026-05-06 10:37 21.00673 115.62510 37525 ft 526 kts 138°
2026-05-06 10:38 20.98068 115.65243 37858 ft 526 kts 138°
2026-05-06 10:38 20.95488 115.67950 38166 ft 525 kts 138°
2026-05-06 10:38 20.92876 115.70688 38477 ft 525 kts 138°
2026-05-06 10:38 20.90268 115.73421 38737 ft 524 kts 137°
2026-05-06 10:39 20.87652 115.76160 39001 ft 524 kts 137°
2026-05-06 10:39 20.85056 115.78878 39238 ft 523 kts 137°
2026-05-06 10:39 20.82454 115.81600 39488 ft 522 kts 137°
2026-05-06 10:39 20.79850 115.84323 39720 ft 522 kts 137°
2026-05-06 10:40 20.77260 115.87030 39953 ft 521 kts 137°
2026-05-06 10:40 20.74679 115.89726 40184 ft 520 kts 137°
2026-05-06 10:40 20.72079 115.92440 40409 ft 520 kts 137°
2026-05-06 10:40 20.69493 115.95139 40635 ft 519 kts 137°
2026-05-06 10:41 20.66920 115.97823 40848 ft 518 kts 137°
2026-05-06 10:41 20.64370 116.00481 40925 ft 520 kts 137°
2026-05-06 10:41 20.59191 116.05876 40925 ft 519 kts 137°
2026-05-06 10:42 20.54027 116.11251 40923 ft 519 kts 137°
2026-05-06 10:42 20.48869 116.16613 40924 ft 518 kts 137°
2026-05-06 10:43 20.43699 116.21983 40922 ft 518 kts 137°
2026-05-06 10:44 20.35958 116.30013 40923 ft 517 kts 137°
2026-05-06 10:44 20.31662 116.34465 40919 ft 517 kts 137°
2026-05-06 10:45 20.26510 116.39798 40923 ft 517 kts 137°
2026-05-06 10:45 20.21345 116.45140 40919 ft 516 kts 137°
2026-05-06 10:46 20.16194 116.50461 40919 ft 516 kts 137°
2026-05-06 10:46 20.11052 116.55769 40918 ft 516 kts 138°
2026-05-06 10:47 20.05925 116.61057 40917 ft 515 kts 138°
2026-05-06 10:47 20.00785 116.66352 40918 ft 515 kts 138°
2026-05-06 10:48 19.95755 116.71806 40916 ft 515 kts 134°
2026-05-06 10:48 19.90976 116.77481 40917 ft 515 kts 133°
2026-05-06 10:49 19.86194 116.83152 40914 ft 515 kts 134°
2026-05-06 10:49 19.81382 116.88765 40914 ft 514 kts 134°
2026-05-06 10:50 19.76547 116.94358 40915 ft 514 kts 134°
2026-05-06 10:50 19.71694 116.99963 40912 ft 514 kts 134°
2026-05-06 10:51 19.66888 117.05510 40912 ft 513 kts 134°
2026-05-06 10:51 19.62055 117.11086 40911 ft 513 kts 134°
2026-05-06 10:52 19.57454 117.16386 40893 ft 512 kts 133°
2026-05-06 10:52 19.52643 117.21926 40911 ft 508 kts 133°
2026-05-06 10:53 19.48072 117.27190 40914 ft 507 kts 133°
2026-05-06 10:53 19.44196 117.31647 40910 ft 506 kts 133°
2026-05-06 10:54 19.41587 117.34646 40906 ft 505 kts 133°
2026-05-06 10:54 19.37104 117.39793 40909 ft 506 kts 133°
2026-05-06 10:55 19.32352 117.45244 40910 ft 507 kts 133°
2026-05-06 10:55 19.27556 117.50740 40910 ft 506 kts 133°
2026-05-06 10:56 19.22788 117.56200 40909 ft 506 kts 133°
2026-05-06 10:56 19.19907 117.59496 40908 ft 506 kts 133°
2026-05-06 10:57 19.15181 117.64900 40908 ft 506 kts 133°
2026-05-06 10:57 19.10407 117.70353 40904 ft 506 kts 133°
2026-05-06 10:58 19.05615 117.75822 40901 ft 506 kts 133°
2026-05-06 10:58 19.00838 117.81272 40901 ft 506 kts 133°
2026-05-06 10:59 18.96158 117.86604 40914 ft 506 kts 133°
2026-05-06 10:59 18.91375 117.92044 40901 ft 505 kts 133°
2026-05-06 11:00 18.86614 117.97456 40917 ft 505 kts 133°
2026-05-06 11:00 18.81814 118.02909 40911 ft 505 kts 133°
2026-05-06 11:01 18.77026 118.08343 40902 ft 505 kts 133°
2026-05-06 11:01 18.72230 118.13782 40903 ft 505 kts 133°
2026-05-06 11:02 18.67450 118.19197 40911 ft 505 kts 133°
2026-05-06 11:02 18.62657 118.24623 40909 ft 504 kts 133°
2026-05-06 11:03 18.57912 118.29990 40914 ft 504 kts 133°
2026-05-06 11:03 18.53135 118.35388 40902 ft 503 kts 133°
2026-05-06 11:04 18.48356 118.40783 40907 ft 503 kts 133°
2026-05-06 11:04 18.43573 118.46178 40897 ft 503 kts 133°
2026-05-06 11:05 18.38806 118.51551 40898 ft 503 kts 133°
2026-05-06 11:05 18.34015 118.56945 40902 ft 503 kts 133°
2026-05-06 11:06 18.29231 118.62328 40903 ft 503 kts 134°
2026-05-06 11:06 18.24489 118.67658 40909 ft 503 kts 134°
2026-05-06 11:07 18.19683 118.73057 40903 ft 503 kts 134°
2026-05-06 11:07 18.14923 118.78397 40895 ft 503 kts 134°
2026-05-06 11:08 18.10128 118.83774 40897 ft 503 kts 134°
2026-05-06 11:08 18.05349 118.89128 40904 ft 502 kts 134°
2026-05-06 11:09 18.01367 118.93585 40905 ft 502 kts 134°